Time,TemperatureF,DewpointF,PressureIn,WindDirection,WindDirectionDegrees,WindSpeedMPH,WindSpeedGustMPH,Humidity,HourlyPrecipIn,Conditions,Clouds,dailyrainin,SoftwareType,DateUTC
2013-08-30 00:00:00,77.6,72.0,29.79,SW,232,0.0,1.0,83,0.00,,,0.00,VWS V14.01,2013-08-30 05:00:00,
2013-08-30 00:05:00,77.6,72.4,29.79,SW,232,0.0,1.0,84,0.00,,,0.00,VWS V14.01,2013-08-30 05:05:00,
2013-08-30 00:10:00,77.5,72.3,29.78,SW,231,0.0,0.0,84,0.00,,,0.00,VWS V14.01,2013-08-30 05:10:00,
2013-08-30 00:15:00,77.4,72.2,29.78,SW,231,0.0,0.0,84,0.00,,,0.00,VWS V14.01,2013-08-30 05:15:00,
2013-08-30 00:20:00,77.3,72.1,29.78,SW,231,0.0,1.0,84,0.00,,,0.00,VWS V14.01,2013-08-30 05:20:00,
2013-08-30 00:25:00,77.3,72.1,29.78,SW,226,0.0,1.0,84,0.00,,,0.00,VWS V14.01,2013-08-30 05:25:00,
2013-08-30 00:30:00,77.2,72.0,29.79,SW,227,0.0,1.0,84,0.00,,,0.00,VWS V14.01,2013-08-30 05:30:00,
2013-08-30 00:35:00,77.1,71.9,29.79,WSW,237,0.0,0.0,84,0.00,,,0.00,VWS V14.01,2013-08-30 05:35:00,
2013-08-30 00:40:00,77.0,71.8,29.79,SW,233,0.0,2.0,84,0.00,,,0.00,VWS V14.01,2013-08-30 05:40:00,
2013-08-30 00:45:00,76.9,71.7,29.79,SW,233,0.0,2.0,84,0.00,,,0.00,VWS V14.01,2013-08-30 05:45:00,
2013-08-30 00:50:00,76.9,71.7,29.79,SW,233,0.0,2.0,84,0.00,,,0.00,VWS V14.01,2013-08-30 05:50:00,
2013-08-30 00:55:00,76.8,71.9,29.79,SW,233,0.0,2.0,85,0.00,,,0.00,VWS V14.01,2013-08-30 05:55:00,
2013-08-30 01:00:00,76.8,71.9,29.79,SW,233,1.0,2.0,85,0.00,,,0.00,VWS V14.01,2013-08-30 06:00:00,
2013-08-30 01:05:00,76.7,71.9,29.78,SW,234,0.0,0.0,85,0.00,,,0.00,VWS V14.01,2013-08-30 06:05:00,
2013-08-30 01:10:00,76.7,71.9,29.78,SW,231,0.0,1.0,85,0.00,,,0.00,VWS V14.01,2013-08-30 06:10:00,
2013-08-30 01:15:00,76.7,71.9,29.78,SW,231,0.0,1.0,85,0.00,,,0.00,VWS V14.01,2013-08-30 06:15:00,
2013-08-30 01:21:00,76.7,71.9,29.78,SSW,211,2.0,2.0,85,0.00,,,0.00,VWS V14.01,2013-08-30 06:21:00,
2013-08-30 01:26:00,76.7,71.9,29.78,WSW,245,0.0,3.0,85,0.00,,,0.00,VWS V14.01,2013-08-30 06:26:00,
2013-08-30 01:31:00,76.6,71.8,29.78,WSW,246,0.0,3.0,85,0.00,,,0.00,VWS V14.01,2013-08-30 06:31:00,
2013-08-30 01:36:00,76.6,71.8,29.78,WSW,245,0.0,1.0,85,0.00,,,0.00,VWS V14.01,2013-08-30 06:36:00,
2013-08-30 01:41:00,76.6,71.8,29.78,WSW,255,1.0,3.0,85,0.00,,,0.00,VWS V14.01,2013-08-30 06:41:00,
2013-08-30 01:46:00,76.6,71.8,29.77,West,264,1.0,3.0,85,0.00,,,0.00,VWS V14.01,2013-08-30 06:46:00,
2013-08-30 01:51:00,76.5,71.7,29.77,WSW,246,1.0,4.0,85,0.00,,,0.00,VWS V14.01,2013-08-30 06:51:00,
2013-08-30 01:56:00,76.4,71.6,29.77,WSW,242,1.0,4.0,85,0.00,,,0.00,VWS V14.01,2013-08-30 06:56:00,
2013-08-30 02:01:00,76.4,71.6,29.77,WSW,249,0.0,4.0,85,0.00,,,0.00,VWS V14.01,2013-08-30 07:01:00,
2013-08-30 02:06:00,76.4,71.6,29.77,WSW,258,0.0,0.0,85,0.00,,,0.00,VWS V14.01,2013-08-30 07:06:00,
2013-08-30 02:11:00,76.3,71.5,29.77,West,260,2.0,3.0,85,0.00,,,0.00,VWS V14.01,2013-08-30 07:11:00,
2013-08-30 02:16:00,76.3,71.5,29.77,WSW,239,1.0,4.0,85,0.00,,,0.00,VWS V14.01,2013-08-30 07:16:00,
2013-08-30 02:21:00,76.3,71.5,29.76,WSW,252,2.0,7.0,85,0.00,,,0.00,VWS V14.01,2013-08-30 07:21:00,
2013-08-30 02:26:00,76.3,71.5,29.76,West,272,0.0,7.0,85,0.00,,,0.00,VWS V14.01,2013-08-30 07:26:00,
2013-08-30 02:31:00,76.2,71.4,29.76,SW,233,1.0,7.0,85,0.00,,,0.00,VWS V14.01,2013-08-30 07:31:00,
2013-08-30 02:36:00,76.2,71.4,29.76,West,276,0.0,1.0,85,0.00,,,0.00,VWS V14.01,2013-08-30 07:36:00,
2013-08-30 02:41:00,76.2,71.4,29.76,West,276,0.0,1.0,85,0.00,,,0.00,VWS V14.01,2013-08-30 07:41:00,
2013-08-30 02:46:00,76.2,71.0,29.76,WSW,256,1.0,4.0,84,0.00,,,0.00,VWS V14.01,2013-08-30 07:46:00,
2013-08-30 02:51:00,76.1,70.9,29.76,West,262,0.0,4.0,84,0.00,,,0.00,VWS V14.01,2013-08-30 07:51:00,
2013-08-30 02:56:00,76.1,70.9,29.76,WNW,284,0.0,4.0,84,0.00,,,0.00,VWS V14.01,2013-08-30 07:56:00,
2013-08-30 03:02:00,76.0,70.8,29.76,South,189,1.0,5.0,84,0.00,,,0.00,VWS V14.01,2013-08-30 08:02:00,
2013-08-30 03:07:00,76.0,70.8,29.76,WSW,243,1.0,2.0,84,0.00,,,0.00,VWS V14.01,2013-08-30 08:07:00,
2013-08-30 03:12:00,76.0,70.8,29.76,WSW,244,0.0,2.0,84,0.00,,,0.00,VWS V14.01,2013-08-30 08:12:00,
2013-08-30 03:17:00,76.0,70.8,29.76,WSW,244,0.0,2.0,84,0.00,,,0.00,VWS V14.01,2013-08-30 08:17:00,
2013-08-30 03:22:00,76.0,70.8,29.76,WSW,244,1.0,2.0,84,0.00,,,0.00,VWS V14.01,2013-08-30 08:22:00,
2013-08-30 03:27:00,75.9,70.7,29.76,West,264,2.0,4.0,84,0.00,,,0.00,VWS V14.01,2013-08-30 08:27:00,
2013-08-30 03:32:00,75.9,70.7,29.76,WSW,252,0.0,4.0,84,0.00,,,0.00,VWS V14.01,2013-08-30 08:32:00,
2013-08-30 03:37:00,75.8,71.0,29.76,SW,233,0.0,2.0,85,0.00,,,0.00,VWS V14.01,2013-08-30 08:37:00,
2013-08-30 03:42:00,75.8,71.0,29.76,WSW,237,0.0,4.0,85,0.00,,,0.00,VWS V14.01,2013-08-30 08:42:00,
2013-08-30 03:47:00,75.8,71.0,29.76,WSW,248,1.0,4.0,85,0.00,,,0.00,VWS V14.01,2013-08-30 08:47:00,
2013-08-30 03:52:00,75.8,71.0,29.76,WNW,285,0.0,4.0,85,0.00,,,0.00,VWS V14.01,2013-08-30 08:52:00,
2013-08-30 03:57:00,75.7,70.9,29.76,WNW,285,0.0,4.0,85,0.00,,,0.00,VWS V14.01,2013-08-30 08:57:00,
2013-08-30 04:02:00,75.7,70.9,29.76,West,262,0.0,4.0,85,0.00,,,0.00,VWS V14.01,2013-08-30 09:02:00,
2013-08-30 04:07:00,75.6,71.1,29.76,West,262,0.0,1.0,86,0.00,,,0.00,VWS V14.01,2013-08-30 09:07:00,
2013-08-30 04:12:00,75.6,71.1,29.76,West,266,1.0,4.0,86,0.00,,,0.00,VWS V14.01,2013-08-30 09:12:00,
2013-08-30 04:17:00,75.6,71.5,29.76,WSW,249,0.0,4.0,87,0.00,,,0.00,VWS V14.01,2013-08-30 09:17:00,
2013-08-30 04:22:00,75.6,71.5,29.77,WSW,249,1.0,4.0,87,0.00,,,0.00,VWS V14.01,2013-08-30 09:22:00,
2013-08-30 04:27:00,75.5,71.4,29.77,WSW,250,2.0,4.0,87,0.00,,,0.00,VWS V14.01,2013-08-30 09:27:00,
2013-08-30 04:32:00,75.5,71.4,29.77,WSW,250,0.0,4.0,87,0.00,,,0.00,VWS V14.01,2013-08-30 09:32:00,
2013-08-30 04:37:00,75.5,71.4,29.77,West,273,0.0,1.0,87,0.00,,,0.00,VWS V14.01,2013-08-30 09:37:00,
2013-08-30 04:42:00,75.4,71.3,29.77,SSW,195,0.0,3.0,87,0.00,,,0.00,VWS V14.01,2013-08-30 09:42:00,
2013-08-30 04:47:00,75.3,71.2,29.77,SW,230,2.0,3.0,87,0.00,,,0.00,VWS V14.01,2013-08-30 09:47:00,
2013-08-30 04:52:00,75.2,71.1,29.77,SW,224,0.0,3.0,87,0.00,,,0.00,VWS V14.01,2013-08-30 09:52:00,
2013-08-30 04:58:00,75.1,71.3,29.77,NE,35,0.0,3.0,88,0.00,,,0.00,VWS V14.01,2013-08-30 09:58:00,
2013-08-30 05:03:00,75.0,71.2,29.77,NE,41,1.0,3.0,88,0.00,,,0.00,VWS V14.01,2013-08-30 10:03:00,
2013-08-30 05:08:00,74.9,71.1,29.77,NE,51,0.0,1.0,88,0.00,,,0.00,VWS V14.01,2013-08-30 10:08:00,
2013-08-30 05:13:00,74.8,71.0,29.77,SW,219,0.0,2.0,88,0.00,,,0.00,VWS V14.01,2013-08-30 10:13:00,
2013-08-30 05:18:00,74.6,70.5,29.78,West,278,0.0,2.0,87,0.00,,,0.00,VWS V14.01,2013-08-30 10:18:00,
2013-08-30 05:23:00,74.5,70.4,29.78,WNW,303,0.0,4.0,87,0.00,,,0.00,VWS V14.01,2013-08-30 10:23:00,
2013-08-30 05:28:00,74.4,70.3,29.78,North,4,0.0,4.0,87,0.00,,,0.00,VWS V14.01,2013-08-30 10:28:00,
2013-08-30 05:30:00,74.3,70.2,29.78,ENE,69,0.0,4.0,87,0.00,,,0.00,VWS V14.01,2013-08-30 10:30:00,
2013-08-30 05:33:00,74.3,70.2,29.78,SSE,168,0.0,4.0,87,0.00,,,0.00,VWS V14.01,2013-08-30 10:33:00,
2013-08-30 05:38:00,74.3,70.2,29.78,ENE,69,0.0,4.0,87,0.00,,,0.00,VWS V14.01,2013-08-30 10:38:00,
2013-08-30 05:43:00,74.1,70.0,29.78,SSW,213,0.0,2.0,87,0.00,,,0.00,VWS V14.01,2013-08-30 10:43:00,
2013-08-30 05:48:00,74.0,69.9,29.79,NE,52,1.0,3.0,87,0.00,,,0.00,VWS V14.01,2013-08-30 10:48:00,
2013-08-30 05:53:00,73.9,69.8,29.79,NW,325,0.0,3.0,87,0.00,,,0.00,VWS V14.01,2013-08-30 10:53:00,
2013-08-30 05:58:00,73.8,69.7,29.79,NE,37,0.0,3.0,87,0.00,,,0.00,VWS V14.01,2013-08-30 10:58:00,
2013-08-30 06:03:00,73.7,69.6,29.79,NNE,20,1.0,4.0,87,0.00,,,0.00,VWS V14.01,2013-08-30 11:03:00,
2013-08-30 06:08:00,73.6,69.5,29.79,NE,42,0.0,2.0,87,0.00,,,0.00,VWS V14.01,2013-08-30 11:08:00,
2013-08-30 06:13:00,73.5,69.4,29.79,North,354,0.0,3.0,87,0.00,,,0.00,VWS V14.01,2013-08-30 11:13:00,
2013-08-30 06:18:00,73.4,69.3,29.79,NNW,342,0.0,3.0,87,0.00,,,0.00,VWS V14.01,2013-08-30 11:18:00,
2013-08-30 06:23:00,73.2,69.1,29.80,NNE,29,1.0,4.0,87,0.00,,,0.00,VWS V14.01,2013-08-30 11:23:00,
2013-08-30 06:28:00,73.1,69.0,29.79,North,4,0.0,4.0,87,0.00,,,0.00,VWS V14.01,2013-08-30 11:28:00,
2013-08-30 06:33:00,73.0,68.9,29.80,NNE,14,1.0,5.0,87,0.00,,,0.00,VWS V14.01,2013-08-30 11:33:00,
2013-08-30 06:39:00,72.9,68.8,29.80,North,10,0.0,1.0,87,0.00,,,0.00,VWS V14.01,2013-08-30 11:39:00,
2013-08-30 06:44:00,72.8,69.0,29.80,NNE,23,0.0,2.0,88,0.00,,,0.00,VWS V14.01,2013-08-30 11:44:00,
2013-08-30 06:49:00,72.7,68.9,29.80,NNE,25,0.0,3.0,88,0.00,,,0.00,VWS V14.01,2013-08-30 11:49:00,
2013-08-30 06:54:00,72.5,68.8,29.80,NW,316,2.0,6.0,88,0.00,,,0.00,VWS V14.01,2013-08-30 11:54:00,
2013-08-30 06:59:00,72.4,68.7,29.81,NW,315,0.0,6.0,88,0.00,,,0.00,VWS V14.01,2013-08-30 11:59:00,
2013-08-30 07:04:00,72.4,68.7,29.81,ESE,104,0.0,6.0,88,0.00,,,0.00,VWS V14.01,2013-08-30 12:04:00,
2013-08-30 07:09:00,72.3,68.6,29.81,NNE,18,0.0,3.0,88,0.00,,,0.00,VWS V14.01,2013-08-30 12:09:00,
2013-08-30 07:14:00,72.2,68.4,29.81,NNE,29,1.0,5.0,88,0.00,,,0.00,VWS V14.01,2013-08-30 12:14:00,
2013-08-30 07:19:00,72.2,68.8,29.81,NW,314,1.0,5.0,89,0.00,,,0.00,VWS V14.01,2013-08-30 12:19:00,
2013-08-30 07:24:00,72.2,68.8,29.81,NNW,348,1.0,6.0,89,0.00,,,0.00,VWS V14.01,2013-08-30 12:24:00,
2013-08-30 07:29:00,72.2,68.8,29.82,NW,322,2.0,6.0,89,0.00,,,0.00,VWS V14.01,2013-08-30 12:29:00,
2013-08-30 07:34:00,72.2,68.8,29.82,South,177,0.0,6.0,89,0.00,,,0.00,VWS V14.01,2013-08-30 12:34:00,
2013-08-30 07:39:00,72.2,68.8,29.82,NW,314,2.0,4.0,89,0.00,,,0.00,VWS V14.01,2013-08-30 12:39:00,
2013-08-30 07:44:00,72.1,68.7,29.82,North,4,0.0,4.0,89,0.00,,,0.00,VWS V14.01,2013-08-30 12:44:00,
2013-08-30 07:49:00,72.1,68.7,29.82,South,171,0.0,4.0,89,0.00,,,0.00,VWS V14.01,2013-08-30 12:49:00,
2013-08-30 07:54:00,72.1,68.7,29.82,NW,310,1.0,4.0,89,0.00,,,0.00,VWS V14.01,2013-08-30 12:54:00,
2013-08-30 07:59:00,72.1,68.3,29.82,NNE,21,0.0,5.0,88,0.00,,,0.00,VWS V14.01,2013-08-30 12:59:00,
2013-08-30 08:04:00,72.1,68.3,29.83,SE,141,2.0,8.0,88,0.00,,,0.00,VWS V14.01,2013-08-30 13:04:00,
2013-08-30 08:09:00,72.1,68.3,29.83,East,79,2.0,6.0,88,0.00,,,0.00,VWS V14.01,2013-08-30 13:09:00,
2013-08-30 08:14:00,72.0,68.3,29.83,NNE,30,1.0,6.0,88,0.00,,,0.00,VWS V14.01,2013-08-30 13:14:00,
2013-08-30 08:20:00,71.9,68.2,29.83,NNW,335,3.0,6.0,88,0.00,,,0.00,VWS V14.01,2013-08-30 13:20:00,
2013-08-30 08:25:00,71.9,68.2,29.83,NE,54,0.0,6.0,88,0.00,,,0.00,VWS V14.01,2013-08-30 13:25:00,
2013-08-30 08:30:00,71.9,68.2,29.83,NNE,15,0.0,6.0,88,0.00,,,0.00,VWS V14.01,2013-08-30 13:30:00,
2013-08-30 08:35:00,71.9,68.2,29.84,WNW,302,2.0,6.0,88,0.00,,,0.00,VWS V14.01,2013-08-30 13:35:00,
2013-08-30 08:40:00,71.9,68.2,29.84,NNE,30,1.0,4.0,88,0.00,,,0.00,VWS V14.01,2013-08-30 13:40:00,
2013-08-30 08:45:00,71.8,67.7,29.84,ENE,62,4.0,7.0,87,0.00,,,0.00,VWS V14.01,2013-08-30 13:45:00,
2013-08-30 08:50:00,71.6,67.5,29.84,NW,310,2.0,8.0,87,0.00,,,0.00,VWS V14.01,2013-08-30 13:50:00,
2013-08-30 08:55:00,71.4,66.3,29.84,NNE,14,0.0,8.0,84,0.00,,,0.00,VWS V14.01,2013-08-30 13:55:00,
2013-08-30 09:00:00,71.1,65.7,29.84,NNE,14,5.0,8.0,83,0.00,,,0.00,VWS V14.01,2013-08-30 14:00:00,
2013-08-30 09:05:00,71.1,66.0,29.84,SW,226,0.0,0.0,84,0.00,,,0.00,VWS V14.01,2013-08-30 14:05:00,
2013-08-30 09:10:00,71.4,66.3,29.85,ESE,110,0.0,2.0,84,0.00,,,0.00,VWS V14.01,2013-08-30 14:10:00,
2013-08-30 09:15:00,72.3,66.8,29.85,WNW,302,6.0,6.0,83,0.00,,,0.00,VWS V14.01,2013-08-30 14:15:00,
2013-08-30 09:20:00,73.2,66.3,29.85,NE,48,0.0,6.0,79,0.00,,,0.00,VWS V14.01,2013-08-30 14:20:00,
2013-08-30 09:25:00,73.8,66.5,29.86,ENE,66,1.0,6.0,78,0.00,,,0.00,VWS V14.01,2013-08-30 14:25:00,
2013-08-30 09:30:00,74.4,67.1,29.86,North,4,1.0,8.0,78,0.00,,,0.00,VWS V14.01,2013-08-30 14:30:00,
2013-08-30 09:35:00,74.9,67.2,29.86,NNE,33,3.0,4.0,77,0.00,,,0.00,VWS V14.01,2013-08-30 14:35:00,
2013-08-30 09:40:00,75.5,67.0,29.86,SSW,202,3.0,5.0,75,0.00,,,0.00,VWS V14.01,2013-08-30 14:40:00,
2013-08-30 09:45:00,75.8,66.5,29.86,NE,39,1.0,6.0,73,0.00,,,0.00,VWS V14.01,2013-08-30 14:45:00,
2013-08-30 09:50:00,75.6,67.1,29.86,ENE,68,3.0,6.0,75,0.00,,,0.00,VWS V14.01,2013-08-30 14:50:00,
2013-08-30 09:55:00,75.8,66.9,29.86,NW,318,2.0,6.0,74,0.00,,,0.00,VWS V14.01,2013-08-30 14:55:00,
2013-08-30 10:01:00,75.6,66.7,29.86,NNE,32,1.0,6.0,74,0.00,,,0.00,VWS V14.01,2013-08-30 15:01:00,
2013-08-30 10:06:00,75.4,66.9,29.87,WNW,289,2.0,4.0,75,0.00,,,0.00,VWS V14.01,2013-08-30 15:06:00,
2013-08-30 10:11:00,74.8,65.6,29.87,ENE,67,1.0,5.0,73,0.00,,,0.00,VWS V14.01,2013-08-30 15:11:00,
2013-08-30 10:16:00,74.3,65.9,29.87,ENE,57,0.0,5.0,75,0.00,,,0.00,VWS V14.01,2013-08-30 15:16:00,
2013-08-30 10:21:00,74.2,66.2,29.87,NW,304,2.0,5.0,76,0.00,,,0.00,VWS V14.01,2013-08-30 15:21:00,
2013-08-30 10:26:00,74.4,66.3,29.87,NNW,333,2.0,5.0,76,0.00,,,0.00,VWS V14.01,2013-08-30 15:26:00,
2013-08-30 10:31:00,74.7,66.3,29.87,North,354,0.0,5.0,75,0.00,,,0.00,VWS V14.01,2013-08-30 15:31:00,
2013-08-30 10:36:00,74.7,66.3,29.87,NW,308,2.0,2.0,75,0.00,,,0.00,VWS V14.01,2013-08-30 15:36:00,
2013-08-30 10:41:00,74.6,65.8,29.87,North,4,3.0,5.0,74,0.00,,,0.00,VWS V14.01,2013-08-30 15:41:00,
2013-08-30 10:46:00,74.2,65.8,29.87,East,87,2.0,5.0,75,0.00,,,0.00,VWS V14.01,2013-08-30 15:46:00,
2013-08-30 10:51:00,73.9,65.9,29.87,ENE,77,1.0,5.0,76,0.00,,,0.00,VWS V14.01,2013-08-30 15:51:00,
2013-08-30 10:56:00,73.7,65.7,29.88,ENE,68,3.0,6.0,76,0.00,,,0.00,VWS V14.01,2013-08-30 15:56:00,
2013-08-30 11:01:00,73.5,65.5,29.88,NW,322,0.0,6.0,76,0.00,,,0.00,VWS V14.01,2013-08-30 16:01:00,
2013-08-30 11:06:00,73.5,65.9,29.88,NE,56,1.0,3.0,77,0.00,,,0.00,VWS V14.01,2013-08-30 16:06:00,
2013-08-30 11:11:00,73.6,65.9,29.87,NW,322,0.0,5.0,77,0.00,,,0.00,VWS V14.01,2013-08-30 16:11:00,
2013-08-30 11:16:00,73.6,65.9,29.87,WNW,302,3.0,5.0,77,0.00,,,0.00,VWS V14.01,2013-08-30 16:16:00,
2013-08-30 11:21:00,73.5,65.9,29.88,ENE,75,2.0,5.0,77,0.00,,,0.00,VWS V14.01,2013-08-30 16:21:00,
2013-08-30 11:26:00,73.5,65.9,29.88,East,84,2.0,5.0,77,0.00,,,0.00,VWS V14.01,2013-08-30 16:26:00,
2013-08-30 11:31:00,73.6,65.6,29.88,NNW,328,3.0,6.0,76,0.00,,,0.00,VWS V14.01,2013-08-30 16:31:00,
2013-08-30 11:36:00,73.6,65.9,29.88,WNW,303,4.0,4.0,77,0.00,,,0.00,VWS V14.01,2013-08-30 16:36:00,
2013-08-30 11:42:00,73.6,65.6,29.88,WNW,287,1.0,7.0,76,0.00,,,0.00,VWS V14.01,2013-08-30 16:42:00,
2013-08-30 11:47:00,73.5,65.5,29.88,NW,311,1.0,9.0,76,0.00,,,0.00,VWS V14.01,2013-08-30 16:47:00,
2013-08-30 11:52:00,73.5,65.9,29.88,NNW,338,2.0,9.0,77,0.00,,,0.00,VWS V14.01,2013-08-30 16:52:00,
2013-08-30 11:57:00,73.5,65.5,29.88,NNW,328,3.0,9.0,76,0.00,,,0.00,VWS V14.01,2013-08-30 16:57:00,
2013-08-30 12:02:00,73.8,66.5,29.87,SSW,204,1.0,9.0,78,0.00,,,0.00,VWS V14.01,2013-08-30 17:02:00,
2013-08-30 12:07:00,74.4,66.7,29.87,NW,308,1.0,4.0,77,0.00,,,0.00,VWS V14.01,2013-08-30 17:07:00,
2013-08-30 12:12:00,74.9,66.1,29.87,SE,128,2.0,6.0,74,0.00,,,0.00,VWS V14.01,2013-08-30 17:12:00,
2013-08-30 12:17:00,75.2,66.3,29.87,NW,309,1.0,8.0,74,0.00,,,0.00,VWS V14.01,2013-08-30 17:17:00,
2013-08-30 12:22:00,75.5,66.2,29.87,NW,323,0.0,8.0,73,0.00,,,0.00,VWS V14.01,2013-08-30 17:22:00,
2013-08-30 12:27:00,75.7,66.8,29.87,NNE,22,2.0,8.0,74,0.00,,,0.00,VWS V14.01,2013-08-30 17:27:00,
2013-08-30 12:30:00,75.9,66.6,29.87,East,83,3.0,8.0,73,0.00,,,0.00,VWS V14.01,2013-08-30 17:30:00,
2013-08-30 12:32:00,75.8,66.1,29.87,WNW,294,4.0,8.0,72,0.00,,,0.00,VWS V14.01,2013-08-30 17:32:00,
2013-08-30 12:37:00,75.9,66.6,29.87,East,83,3.0,8.0,73,0.00,,,0.00,VWS V14.01,2013-08-30 17:37:00,
2013-08-30 12:42:00,76.1,66.0,29.87,SE,143,1.0,2.0,71,0.00,,,0.00,VWS V14.01,2013-08-30 17:42:00,
2013-08-30 12:47:00,76.3,66.6,29.87,NNW,348,2.0,5.0,72,0.00,,,0.00,VWS V14.01,2013-08-30 17:47:00,
2013-08-30 12:52:00,76.4,66.3,29.87,NNW,339,6.0,8.0,71,0.00,,,0.00,VWS V14.01,2013-08-30 17:52:00,
2013-08-30 12:57:00,76.5,67.2,29.87,NNE,15,2.0,8.0,73,0.00,,,0.00,VWS V14.01,2013-08-30 17:57:00,
2013-08-30 13:03:00,76.6,67.3,29.87,NW,321,5.0,8.0,73,0.00,,,0.00,VWS V14.01,2013-08-30 18:03:00,
2013-08-30 13:08:00,76.8,66.3,29.87,NW,310,5.0,5.0,70,0.00,,,0.00,VWS V14.01,2013-08-30 18:08:00,
2013-08-30 13:13:00,76.9,66.0,29.87,NNW,331,0.0,7.0,69,0.00,,,0.00,VWS V14.01,2013-08-30 18:13:00,
2013-08-30 13:18:00,77.1,66.6,29.87,SE,143,5.0,8.0,70,0.00,,,0.00,VWS V14.01,2013-08-30 18:18:00,
2013-08-30 13:23:00,77.3,66.8,29.87,NE,37,2.0,8.0,70,0.00,,,0.00,VWS V14.01,2013-08-30 18:23:00,
2013-08-30 13:28:00,77.3,67.2,29.87,West,268,0.0,8.0,71,0.00,,,0.00,VWS V14.01,2013-08-30 18:28:00,
2013-08-30 13:33:00,77.1,66.6,29.87,NW,317,0.0,8.0,70,0.00,,,0.00,VWS V14.01,2013-08-30 18:33:00,
2013-08-30 13:38:00,77.1,66.6,29.87,NW,319,1.0,4.0,70,0.00,,,0.00,VWS V14.01,2013-08-30 18:38:00,
2013-08-30 13:43:00,77.1,67.0,29.87,SE,134,0.0,4.0,71,0.00,,,0.00,VWS V14.01,2013-08-30 18:43:00,
2013-08-30 13:48:00,77.3,66.8,29.87,SSE,149,2.0,4.0,70,0.00,,,0.00,VWS V14.01,2013-08-30 18:48:00,
2013-08-30 13:53:00,77.6,67.5,29.88,NW,311,3.0,4.0,71,0.00,,,0.00,VWS V14.01,2013-08-30 18:53:00,
2013-08-30 13:59:00,78.0,67.8,29.87,NW,321,2.0,6.0,71,0.00,,,0.00,VWS V14.01,2013-08-30 18:59:00,
2013-08-30 14:04:00,78.2,67.2,29.87,NNE,17,1.0,6.0,69,0.00,,,0.00,VWS V14.01,2013-08-30 19:04:00,
2013-08-30 14:09:00,78.3,66.9,29.87,WSW,253,0.0,4.0,68,0.00,,,0.00,VWS V14.01,2013-08-30 19:09:00,
2013-08-30 14:14:00,78.4,67.8,29.87,NW,314,1.0,4.0,70,0.00,,,0.00,VWS V14.01,2013-08-30 19:14:00,
2013-08-30 14:19:00,78.6,67.2,29.87,NNE,15,1.0,4.0,68,0.00,,,0.00,VWS V14.01,2013-08-30 19:19:00,
2013-08-30 14:24:00,78.9,67.9,29.87,ESE,116,0.0,4.0,69,0.00,,,0.00,VWS V14.01,2013-08-30 19:24:00,
2013-08-30 14:29:00,79.1,68.1,29.87,East,91,1.0,4.0,69,0.00,,,0.00,VWS V14.01,2013-08-30 19:29:00,
2013-08-30 14:34:00,79.4,67.9,29.86,NNW,335,1.0,5.0,68,0.00,,,0.00,VWS V14.01,2013-08-30 19:34:00,
2013-08-30 14:39:00,79.6,68.1,29.86,WSW,244,4.0,4.0,68,0.00,,,0.00,VWS V14.01,2013-08-30 19:39:00,
2013-08-30 14:44:00,79.8,68.3,29.86,South,184,2.0,4.0,68,0.00,,,0.00,VWS V14.01,2013-08-30 19:44:00,
2013-08-30 14:49:00,80.0,67.6,29.86,ESE,111,3.0,4.0,66,0.00,,,0.00,VWS V14.01,2013-08-30 19:49:00,
2013-08-30 14:54:00,80.2,67.8,29.86,ESE,107,3.0,6.0,66,0.00,,,0.00,VWS V14.01,2013-08-30 19:54:00,
2013-08-30 14:59:00,80.3,67.5,29.86,WNW,301,2.0,6.0,65,0.00,,,0.00,VWS V14.01,2013-08-30 19:59:00,
2013-08-30 15:04:00,80.5,67.7,29.86,NE,56,0.0,6.0,65,0.00,,,0.00,VWS V14.01,2013-08-30 20:04:00,
2013-08-30 15:10:00,80.7,67.8,29.86,ESE,108,0.0,6.0,65,0.00,,,0.00,VWS V14.01,2013-08-30 20:10:00,
2013-08-30 15:15:00,80.8,67.9,29.86,SSE,152,0.0,6.0,65,0.00,,,0.00,VWS V14.01,2013-08-30 20:15:00,
2013-08-30 15:20:00,80.7,67.8,29.85,East,98,0.0,6.0,65,0.00,,,0.00,VWS V14.01,2013-08-30 20:20:00,
2013-08-30 15:25:00,80.6,67.3,29.85,NNW,342,0.0,8.0,64,0.00,,,0.00,VWS V14.01,2013-08-30 20:25:00,
2013-08-30 15:30:00,80.6,67.8,29.85,ESE,109,0.0,10.0,65,0.00,,,0.00,VWS V14.01,2013-08-30 20:30:00,
2013-08-30 15:35:00,80.7,67.8,29.85,SE,127,1.0,10.0,65,0.00,,,0.00,VWS V14.01,2013-08-30 20:35:00,
2013-08-30 15:40:00,80.7,67.8,29.85,NW,314,1.0,7.0,65,0.00,,,0.00,VWS V14.01,2013-08-30 20:40:00,
2013-08-30 15:45:00,80.6,68.6,29.85,SW,236,1.0,7.0,67,0.00,,,0.00,VWS V14.01,2013-08-30 20:45:00,
2013-08-30 15:50:00,80.8,68.4,29.85,NNW,347,2.0,7.0,66,0.00,,,0.00,VWS V14.01,2013-08-30 20:50:00,
2013-08-30 15:55:00,80.8,67.9,29.85,SE,141,2.0,8.0,65,0.00,,,0.00,VWS V14.01,2013-08-30 20:55:00,
2013-08-30 16:00:00,80.9,68.5,29.85,SE,141,0.0,8.0,66,0.00,,,0.00,VWS V14.01,2013-08-30 21:00:00,
2013-08-30 16:05:00,81.0,68.1,29.84,SE,135,1.0,1.0,65,0.00,,,0.00,VWS V14.01,2013-08-30 21:05:00,
2013-08-30 16:10:00,81.0,67.2,29.84,East,95,1.0,5.0,63,0.00,,,0.00,VWS V14.01,2013-08-30 21:10:00,
2013-08-30 16:15:00,81.0,67.2,29.84,ESE,115,1.0,9.0,63,0.00,,,0.00,VWS V14.01,2013-08-30 21:15:00,
2013-08-30 16:20:00,80.9,68.0,29.84,SSE,147,0.0,9.0,65,0.00,,,0.00,VWS V14.01,2013-08-30 21:20:00,
2013-08-30 16:25:00,80.9,68.0,29.84,SE,125,2.0,9.0,65,0.00,,,0.00,VWS V14.01,2013-08-30 21:25:00,
2013-08-30 16:31:00,81.0,68.6,29.84,NNW,339,0.0,9.0,66,0.00,,,0.00,VWS V14.01,2013-08-30 21:31:00,
2013-08-30 16:36:00,81.2,68.8,29.84,NW,326,1.0,3.0,66,0.00,,,0.00,VWS V14.01,2013-08-30 21:36:00,
2013-08-30 16:41:00,81.3,68.9,29.84,NW,308,2.0,5.0,66,0.00,,,0.00,VWS V14.01,2013-08-30 21:41:00,
2013-08-30 16:46:00,81.4,68.5,29.84,WSW,249,1.0,5.0,65,0.00,,,0.00,VWS V14.01,2013-08-30 21:46:00,
2013-08-30 16:51:00,81.4,68.5,29.83,ENE,77,4.0,5.0,65,0.00,,,0.00,VWS V14.01,2013-08-30 21:51:00,
2013-08-30 16:56:00,81.4,68.5,29.83,NW,305,4.0,6.0,65,0.00,,,0.00,VWS V14.01,2013-08-30 21:56:00,
2013-08-30 17:01:00,81.4,67.6,29.83,ESE,112,1.0,6.0,63,0.00,,,0.00,VWS V14.01,2013-08-30 22:01:00,
2013-08-30 17:06:00,81.4,67.6,29.83,NNE,20,0.0,2.0,63,0.00,,,0.00,VWS V14.01,2013-08-30 22:06:00,
2013-08-30 17:11:00,81.4,67.6,29.83,NE,52,1.0,3.0,63,0.00,,,0.00,VWS V14.01,2013-08-30 22:11:00,
2013-08-30 17:16:00,81.3,68.0,29.83,SE,126,3.0,5.0,64,0.00,,,0.00,VWS V14.01,2013-08-30 22:16:00,
2013-08-30 17:21:00,81.2,67.4,29.83,NW,320,2.0,5.0,63,0.00,,,0.00,VWS V14.01,2013-08-30 22:21:00,
2013-08-30 17:26:00,81.1,67.8,29.83,NNE,17,1.0,5.0,64,0.00,,,0.00,VWS V14.01,2013-08-30 22:26:00,
2013-08-30 17:31:00,80.9,67.1,29.83,SE,129,2.0,7.0,63,0.00,,,0.00,VWS V14.01,2013-08-30 22:31:00,
2013-08-30 17:36:00,80.9,67.6,29.83,NE,34,1.0,2.0,64,0.00,,,0.00,VWS V14.01,2013-08-30 22:36:00,
2013-08-30 17:41:00,80.7,66.9,29.83,West,281,0.0,2.0,63,0.00,,,0.00,VWS V14.01,2013-08-30 22:41:00,
2013-08-30 17:47:00,80.6,66.8,29.83,ENE,67,1.0,2.0,63,0.00,,,0.00,VWS V14.01,2013-08-30 22:47:00,
2013-08-30 17:52:00,80.5,67.2,29.83,WNW,297,1.0,4.0,64,0.00,,,0.00,VWS V14.01,2013-08-30 22:52:00,
2013-08-30 17:57:00,80.4,66.7,29.83,ESE,114,1.0,4.0,63,0.00,,,0.00,VWS V14.01,2013-08-30 22:57:00,
2013-08-30 18:02:00,80.2,66.9,29.83,North,4,1.0,4.0,64,0.00,,,0.00,VWS V14.01,2013-08-30 23:02:00,
2013-08-30 18:07:00,80.2,66.9,29.83,NNW,335,2.0,4.0,64,0.00,,,0.00,VWS V14.01,2013-08-30 23:07:00,
2013-08-30 18:12:00,80.0,66.7,29.83,NNW,343,0.0,4.0,64,0.00,,,0.00,VWS V14.01,2013-08-30 23:12:00,
2013-08-30 18:17:00,80.0,67.2,29.83,WNW,299,0.0,4.0,65,0.00,,,0.00,VWS V14.01,2013-08-30 23:17:00,
2013-08-30 18:22:00,79.8,67.0,29.83,NW,315,0.0,4.0,65,0.00,,,0.00,VWS V14.01,2013-08-30 23:22:00,
2013-08-30 18:27:00,79.8,67.4,29.83,NW,314,0.0,4.0,66,0.00,,,0.00,VWS V14.01,2013-08-30 23:27:00,
2013-08-30 18:30:00,79.6,66.8,29.83,SSE,163,0.0,4.0,65,0.00,,,0.00,VWS V14.01,2013-08-30 23:30:00,
2013-08-30 18:32:00,79.7,67.8,29.83,WSW,251,0.0,4.0,67,0.00,,,0.00,VWS V14.01,2013-08-30 23:32:00,
2013-08-30 18:37:00,79.6,66.8,29.83,SSE,163,0.0,4.0,65,0.00,,,0.00,VWS V14.01,2013-08-30 23:37:00,
2013-08-30 18:42:00,79.4,67.1,29.83,East,89,2.0,2.0,66,0.00,,,0.00,VWS V14.01,2013-08-30 23:42:00,
2013-08-30 18:47:00,79.3,67.4,29.83,NE,45,0.0,3.0,67,0.00,,,0.00,VWS V14.01,2013-08-30 23:47:00,
2013-08-30 18:52:00,79.1,67.2,29.83,NNW,348,0.0,3.0,67,0.00,,,0.00,VWS V14.01,2013-08-30 23:52:00,
2013-08-30 18:58:00,79.0,67.1,29.83,NNW,347,0.0,3.0,67,0.00,,,0.00,VWS V14.01,2013-08-30 23:58:00,
2013-08-30 19:03:00,78.8,67.4,29.83,NE,39,0.0,3.0,68,0.00,,,0.00,VWS V14.01,2013-08-31 00:03:00,
2013-08-30 19:08:00,78.6,67.2,29.83,East,95,0.0,1.0,68,0.00,,,0.00,VWS V14.01,2013-08-31 00:08:00,
2013-08-30 19:13:00,78.4,67.0,29.83,NNW,342,0.0,3.0,68,0.00,,,0.00,VWS V14.01,2013-08-31 00:13:00,
2013-08-30 19:18:00,78.2,66.8,29.82,NNW,342,0.0,3.0,68,0.00,,,0.00,VWS V14.01,2013-08-31 00:18:00,
2013-08-30 19:23:00,78.0,67.0,29.83,North,349,0.0,3.0,69,0.00,,,0.00,VWS V14.01,2013-08-31 00:23:00,
2013-08-30 19:28:00,77.8,66.8,29.83,NNW,348,0.0,3.0,69,0.00,,,0.00,VWS V14.01,2013-08-31 00:28:00,
2013-08-30 19:33:00,77.6,67.1,29.83,NNW,348,0.0,3.0,70,0.00,,,0.00,VWS V14.01,2013-08-31 00:33:00,
2013-08-30 19:38:00,77.5,66.9,29.83,NE,35,0.0,1.0,70,0.00,,,0.00,VWS V14.01,2013-08-31 00:38:00,
2013-08-30 19:43:00,77.2,66.7,29.83,NE,35,0.0,1.0,70,0.00,,,0.00,VWS V14.01,2013-08-31 00:43:00,
2013-08-30 19:48:00,77.0,66.9,29.83,NE,34,0.0,1.0,71,0.00,,,0.00,VWS V14.01,2013-08-31 00:48:00,
2013-08-30 19:53:00,76.7,66.6,29.82,NNE,25,0.0,2.0,71,0.00,,,0.00,VWS V14.01,2013-08-31 00:53:00,
2013-08-30 19:58:00,76.5,66.8,29.82,NNE,25,0.0,2.0,72,0.00,,,0.00,VWS V14.01,2013-08-31 00:58:00,
2013-08-30 20:03:00,76.2,66.5,29.82,NNE,25,0.0,2.0,72,0.00,,,0.00,VWS V14.01,2013-08-31 01:03:00,
2013-08-30 20:08:00,76.0,66.3,29.82,NNE,24,0.0,0.0,72,0.00,,,0.00,VWS V14.01,2013-08-31 01:08:00,
2013-08-30 20:14:00,75.8,66.1,29.82,NNE,25,0.0,0.0,72,0.00,,,0.00,VWS V14.01,2013-08-31 01:14:00,
2013-08-30 20:19:00,75.6,65.9,29.83,NNE,25,0.0,1.0,72,0.00,,,0.00,VWS V14.01,2013-08-31 01:19:00,
2013-08-30 20:24:00,75.4,66.2,29.83,NNE,25,0.0,1.0,73,0.00,,,0.00,VWS V14.01,2013-08-31 01:24:00,
2013-08-30 20:29:00,75.2,66.3,29.83,NNE,25,0.0,1.0,74,0.00,,,0.00,VWS V14.01,2013-08-31 01:29:00,
2013-08-30 20:34:00,75.0,66.2,29.83,NNE,25,0.0,1.0,74,0.00,,,0.00,VWS V14.01,2013-08-31 01:34:00,
2013-08-30 20:39:00,74.8,66.0,29.83,NNE,25,0.0,0.0,74,0.00,,,0.00,VWS V14.01,2013-08-31 01:39:00,
2013-08-30 20:44:00,74.6,66.2,29.83,NNE,24,0.0,0.0,75,0.00,,,0.00,VWS V14.01,2013-08-31 01:44:00,
2013-08-30 20:49:00,74.4,66.3,29.83,NNE,25,0.0,0.0,76,0.00,,,0.00,VWS V14.01,2013-08-31 01:49:00,
2013-08-30 20:54:00,74.2,66.2,29.83,NNE,25,0.0,0.0,76,0.00,,,0.00,VWS V14.01,2013-08-31 01:54:00,
2013-08-30 20:59:00,74.0,66.3,29.83,NNE,25,0.0,0.0,77,0.00,,,0.00,VWS V14.01,2013-08-31 01:59:00,
2013-08-30 21:04:00,73.7,66.1,29.83,NNE,25,0.0,0.0,77,0.00,,,0.00,VWS V14.01,2013-08-31 02:04:00,
2013-08-30 21:09:00,73.5,65.9,29.83,NNE,25,0.0,0.0,77,0.00,,,0.00,VWS V14.01,2013-08-31 02:09:00,
2013-08-30 21:14:00,73.2,65.6,29.83,NNE,25,0.0,0.0,77,0.00,,,0.00,VWS V14.01,2013-08-31 02:14:00,
2013-08-30 21:19:00,73.0,65.7,29.83,NNE,25,0.0,0.0,78,0.00,,,0.00,VWS V14.01,2013-08-31 02:19:00,
2013-08-30 21:24:00,72.8,65.6,29.83,NNE,24,0.0,1.0,78,0.00,,,0.00,VWS V14.01,2013-08-31 02:24:00,
2013-08-30 21:29:00,72.6,65.3,29.82,NNE,24,0.0,1.0,78,0.00,,,0.00,VWS V14.01,2013-08-31 02:29:00,
2013-08-30 21:35:00,72.4,65.5,29.82,NNE,24,0.0,1.0,79,0.00,,,0.00,VWS V14.01,2013-08-31 02:35:00,
2013-08-30 21:40:00,72.3,65.4,29.83,NNE,25,0.0,0.0,79,0.00,,,0.00,VWS V14.01,2013-08-31 02:40:00,
2013-08-30 21:45:00,72.1,65.6,29.83,NNE,25,0.0,0.0,80,0.00,,,0.00,VWS V14.01,2013-08-31 02:45:00,
2013-08-30 21:50:00,71.9,65.4,29.83,NNE,25,0.0,0.0,80,0.00,,,0.00,VWS V14.01,2013-08-31 02:50:00,
2013-08-30 21:55:00,71.7,65.2,29.83,NNE,25,0.0,0.0,80,0.00,,,0.00,VWS V14.01,2013-08-31 02:55:00,
2013-08-30 22:00:00,71.5,65.4,29.82,NNE,25,0.0,0.0,81,0.00,,,0.00,VWS V14.01,2013-08-31 03:00:00,
2013-08-30 22:05:00,71.4,65.3,29.82,NNE,25,0.0,0.0,81,0.00,,,0.00,VWS V14.01,2013-08-31 03:05:00,
2013-08-30 22:10:00,71.2,65.4,29.82,NNE,25,0.0,0.0,82,0.00,,,0.00,VWS V14.01,2013-08-31 03:10:00,
2013-08-30 22:15:00,71.0,64.9,29.82,NNE,24,0.0,0.0,81,0.00,,,0.00,VWS V14.01,2013-08-31 03:15:00,
2013-08-30 22:20:00,70.9,64.8,29.82,NNE,25,0.0,0.0,81,0.00,,,0.00,VWS V14.01,2013-08-31 03:20:00,
2013-08-30 22:25:00,70.8,65.0,29.82,NNE,25,0.0,0.0,82,0.00,,,0.00,VWS V14.01,2013-08-31 03:25:00,
2013-08-30 22:30:00,70.7,64.9,29.83,NNE,24,0.0,0.0,82,0.00,,,0.00,VWS V14.01,2013-08-31 03:30:00,
2013-08-30 22:35:00,70.6,64.8,29.82,NNE,24,0.0,0.0,82,0.00,,,0.00,VWS V14.01,2013-08-31 03:35:00,
2013-08-30 22:41:00,70.4,64.7,29.82,NNE,25,0.0,0.0,82,0.00,,,0.00,VWS V14.01,2013-08-31 03:41:00,
2013-08-30 22:46:00,70.4,64.7,29.82,NNE,25,0.0,0.0,82,0.00,,,0.00,VWS V14.01,2013-08-31 03:46:00,
2013-08-30 22:51:00,70.3,64.6,29.83,NNE,25,0.0,0.0,82,0.00,,,0.00,VWS V14.01,2013-08-31 03:51:00,
2013-08-30 22:56:00,70.2,64.4,29.82,SE,139,0.0,1.0,82,0.00,,,0.00,VWS V14.01,2013-08-31 03:56:00,
2013-08-30 23:01:00,70.1,64.4,29.82,SE,139,1.0,1.0,82,0.00,,,0.00,VWS V14.01,2013-08-31 04:01:00,
2013-08-30 23:02:00,70.1,64.4,29.82,SE,139,0.0,1.0,82,0.00,,,0.00,VWS V14.01,2013-08-31 04:02:00,
2013-08-30 23:07:00,70.1,64.4,29.82,SE,139,0.0,0.0,82,0.00,,,0.00,VWS V14.01,2013-08-31 04:07:00,
2013-08-30 23:12:00,70.1,64.4,29.82,East,90,0.0,1.0,82,0.00,,,0.00,VWS V14.01,2013-08-31 04:12:00,
2013-08-30 23:17:00,70.1,64.0,29.83,SSE,158,0.0,1.0,81,0.00,,,0.00,VWS V14.01,2013-08-31 04:17:00,
2013-08-30 23:22:00,70.2,63.8,29.83,SSE,158,0.0,1.0,80,0.00,,,0.00,VWS V14.01,2013-08-31 04:22:00,
2013-08-30 23:27:00,70.2,64.1,29.83,SSE,158,0.0,1.0,81,0.00,,,0.00,VWS V14.01,2013-08-31 04:27:00,
2013-08-30 23:32:00,70.3,63.8,29.83,SE,137,0.0,2.0,80,0.00,,,0.00,VWS V14.01,2013-08-31 04:32:00,
2013-08-30 23:37:00,70.3,63.8,29.83,SE,137,0.0,1.0,80,0.00,,,0.00,VWS V14.01,2013-08-31 04:37:00,
2013-08-30 23:42:00,70.3,63.5,29.83,SE,137,0.0,1.0,79,0.00,,,0.00,VWS V14.01,2013-08-31 04:42:00,
2013-08-30 23:47:00,70.3,63.8,29.83,SSE,167,0.0,2.0,80,0.00,,,0.00,VWS V14.01,2013-08-31 04:47:00,
2013-08-30 23:52:00,70.3,63.5,29.83,SSE,168,0.0,2.0,79,0.00,,,0.00,VWS V14.01,2013-08-31 04:52:00,
2013-08-30 23:57:00,70.3,63.5,29.83,SSE,168,0.0,2.0,79,0.00,,,0.00,VWS V14.01,2013-08-31 04:57:00,